{"data":{"norad_id":63890,"epoch":"2026-05-25T04:14:51.566208Z","epoch_age_seconds":55932,"freshness":"FRESH","line1":"1 63890U 25095A   26145.17698572  .00016371  00000+0  60293-3 0  9990","line2":"2 63890  42.9984 104.4223 0001748 274.7900  85.2752 15.27589431 59489","mean_motion":15.27589431,"eccentricity":0.0001748,"inclination_deg":42.9984,"raan_deg":104.4223,"arg_perigee_deg":274.79,"mean_anomaly_deg":85.2752,"bstar":0.00060293,"rev_number":5948,"period_min":94.26616673155,"perigee_km":481.82152598486,"apogee_km":484.22018677145,"semimajor_km":6861.1578563782,"source":"CELESTRAK","updated_at":"2026-05-25T13:38:20.174749Z"}}